XE2OR-10 Weather Reports


Display with metric or nautical units.
time (UTC)temp
F
wind
direction
speed
MPH
gust
MPH
rain 1hr
in
rain 24hr
in
rain mn
in
humidity
%
barometer
mb
20260510132352 76 168 0.0 0.0 0.00 0.00 0.00 87 1014.0
20260510131849 75 157 0.0 0.0 0.00 0.00 0.00 88 1014.0
20260510131352 75 158 0.0 0.0 0.00 0.00 0.00 89 1014.0
20260510130849 74 155 1.0 2.0 0.00 0.00 0.00 89 1013.8
20260510130349 74 164 0.0 0.0 0.00 0.00 0.00 90 1013.9
20260510125849 73 159 0.0 0.0 0.00 0.00 0.00 91 1013.5
20260510125352 73 169 0.0 0.0 0.00 0.00 0.00 92 1013.8
20260510124849 72 165 0.0 0.0 0.00 0.00 0.00 92 1013.7
20260510124352 72 160 1.0 2.0 0.00 0.00 0.00 92 1013.9
20260510123849 72 156 0.0 0.0 0.00 0.00 0.00 92 1013.7
20260510123349 72 118 0.0 0.0 0.00 0.00 0.00 92 1013.6
20260510122850 72 60 0.0 0.0 0.00 0.00 0.00 92 1013.7
20260510122353 72 180 0.0 0.0 0.00 0.00 0.00 92 1013.5
20260510121849 72 180 0.0 0.0 0.00 0.00 0.00 93 1013.5
20260510121353 72 181 0.0 0.0 0.00 0.00 0.00 92 1013.5
20260510120849 72 181 0.0 0.0 0.00 0.00 0.00 92 1013.3
20260510120349 72 175 0.0 0.0 0.00 0.00 0.00 92 1013.4
20260510115849 72 175 0.0 0.0 0.00 0.00 0.00 92 1013.2
20260510115352 72 178 0.0 0.0 0.00 0.00 0.00 92 1013.1
20260510114849 72 180 0.0 0.0 0.00 0.00 0.00 92 1013.3
20260510114352 72 177 0.0 0.0 0.00 0.00 0.00 91 1013.4
20260510113849 72 175 0.0 0.0 0.00 0.00 0.00 91 1013.2
20260510113349 72 174 0.0 0.0 0.00 0.00 0.00 91 1013.3
20260510112849 72 176 0.0 0.0 0.00 0.00 0.00 91 1013.0
20260510112352 73 178 0.0 0.0 0.00 0.00 0.00 91 1013.2
20260510111849 73 170 0.0 0.0 0.00 0.00 0.00 90 1013.2
20260510111352 73 171 0.0 0.0 0.00 0.00 0.00 90 1013.2
20260510110849 73 174 0.0 0.0 0.00 0.00 0.00 90 1015.2
20260510110349 73 175 0.0 0.0 0.00 0.00 0.00 90 1015.1
20260510105849 73 166 0.0 0.0 0.00 0.00 0.00 89 1015.1
20260510105352 74 166 1.0 2.0 0.00 0.00 0.00 89 1015.3
20260510104853 0 157 0.0 0.0 0.00 0.00 0.00 89 1015.2
20260510104849 74 157 0.0 0.0 0.00 0.00 0.00 89 1015.2
20260510104352 74 161 0.0 0.0 0.00 0.00 0.00 89 1015.2
20260510103849 74 180 0.0 0.0 0.00 0.00 0.00 89 1015.1
20260510103349 74 166 1.0 2.0 0.00 0.00 0.00 89 1015.0
20260510102849 74 184 0.0 0.0 0.00 0.00 0.00 89 1015.1
20260510102352 74 167 0.0 0.0 0.00 0.00 0.00 88 1015.0
20260510101849 74 166 0.0 0.0 0.00 0.00 0.00 89 1015.1
20260510101352 74 191 0.0 0.0 0.00 0.00 0.00 89 1015.1
20260510100853 74 165 0.0 0.0 0.00 0.00 0.00 1015.3
20260510100849 74 165 0.0 0.0 0.00 0.00 0.00 88 1015.3
20260510100349 74 166 0.0 0.0 0.00 0.00 0.00 88 1015.1
20260510095849 74 169 0.0 0.0 0.00 0.00 0.00 88 1015.0
20260510095352 74 183 0.0 0.0 0.00 0.00 0.00 88 1014.9
20260510094849 74 166 0.0 0.0 0.00 0.00 0.00 88 1015.2
20260510094352 74 177 0.0 0.0 0.00 0.00 0.00 88 1015.0
20260510093849 74 176 0.0 0.0 0.00 0.00 0.00 87 1015.0
20260510093349 74 169 0.0 0.0 0.00 0.00 0.00 87 1015.1
20260510092851 74 166 1.0 2.0 0.00 0.00 0.00 87 1015.2
20260510092849 74 166 1.0 2.0 0.00 0.00 0.00 87 1015.2
20260510092352 74 172 0.0 0.0 0.00 0.00 0.00 86 1014.9
20260510091848 75 170 0.0 0.0 0.00 0.00 0.00 86 1015.1
20260510091353 75 161 1.0 2.0 0.00 0.00 0.00 86 1015.0
20260510090849 75 168 1.0 2.0 0.00 0.00 0.00 85 1014.8
20260510090349 75 174 0.0 0.0 0.00 0.00 0.00 85 1015.0
20260510085849 75 163 0.0 0.0 0.00 0.00 0.00 85 1015.0
20260510085353 76 174 0.0 0.0 0.00 0.00 0.00 84 1015.1
20260510084849 76 162 0.0 0.0 0.00 0.00 0.00 84 1014.9
20260510084352 76 144 0.0 0.0 0.00 0.00 0.00 84 1015.1
20260510083849 76 185 0.0 0.0 0.00 0.00 0.00 83 1014.9
20260510083348 76 165 1.0 2.0 0.00 0.00 0.00 83 1015.0
20260510082849 77 158 0.0 0.0 0.00 0.00 0.00 83 1015.1
20260510082352 77 166 1.0 3.0 0.00 0.00 0.00 82 1015.1
20260510081849 77 144 2.0 3.0 0.00 0.00 0.00 82 1014.9
20260510081352 78 164 0.0 0.0 0.00 0.00 0.00 81 1015.0
20260510080849 78 164 0.0 0.0 0.00 0.00 0.00 81 1014.8
20260510080348 78 161 1.0 2.0 0.00 0.00 0.00 81 1014.8
20260510075849 78 158 0.0 0.0 0.00 0.00 0.00 81 1014.8
20260510075352 78 194 1.0 2.0 0.00 0.00 0.00 81 1014.8
20260510074848 78 153 1.0 3.0 0.00 0.00 0.00 80 1014.8
20260510074352 78 187 1.0 2.0 0.00 0.00 0.00 80 1014.9
20260510073848 78 194 0.0 0.0 0.00 0.00 0.00 80 1014.8
20260510073349 78 184 0.0 0.0 0.00 0.00 0.00 80 1015.0
20260510072848 78 191 0.0 0.0 0.00 0.00 0.00 80 1015.0
20260510072352 78 169 1.0 2.0 0.00 0.00 0.00 80 1014.8
20260510071848 78 162 0.0 0.0 0.00 0.00 0.00 80 1014.8
20260510071352 78 193 1.0 2.0 0.00 0.00 0.00 80 1014.9
20260510070848 78 194 0.0 0.0 0.00 0.00 0.00 80 1014.9
20260510070349 78 197 0.0 0.0 0.00 0.00 0.00 80 1014.9
20260510065849 78 174 0.0 0.0 0.00 0.00 0.00 79 1015.0
20260510065353 78 179 0.0 0.0 0.00 0.00 0.00 79 1015.0
20260510064849 78 157 0.0 0.0 0.00 0.00 0.00 79 1015.2
20260510064353 78 161 1.0 2.0 0.00 0.00 0.00 79 1014.8
20260510063849 78 179 0.0 0.0 0.00 0.00 0.00 79 1014.9
20260510063349 78 185 0.0 0.0 0.00 0.00 0.00 79 1015.2
20260510062849 78 166 0.0 0.0 0.00 0.00 0.00 78 1015.1
20260510062353 78 154 0.0 0.0 0.00 0.00 0.00 78 1015.2
20260510061849 78 179 0.0 0.0 0.00 0.00 0.00 78 1015.0
20260510061353 78 171 0.0 0.0 0.00 0.00 0.00 78 1014.8
20260510060849 78 180 0.0 0.0 0.00 0.00 0.00 78 1014.9
20260510060349 78 191 0.0 0.0 0.00 0.00 0.00 77 1014.8
20260510055849 78 186 0.0 0.0 0.00 0.00 0.00 77 1014.9
20260510055353 78 194 0.0 0.0 0.00 0.00 0.00 77 1015.1
20260510054849 78 194 0.0 0.0 0.00 0.00 0.00 77 1014.8
20260510054352 79 187 0.0 0.0 0.00 0.00 0.00 76 1015.1
20260510053849 79 182 0.0 0.0 0.00 0.00 0.00 76 1014.7
20260510053348 79 170 0.0 0.0 0.00 0.00 0.00 76 1015.1
20260510052849 79 175 0.0 0.0 0.00 0.00 0.00 75 1015.0
20260510052352 80 185 0.0 0.0 0.00 0.00 0.00 75 1015.1
20260510051849 80 186 0.0 0.0 0.00 0.00 0.00 75 1014.9
20260510051352 80 178 0.0 0.0 0.00 0.00 0.00 74 1015.1
20260510050849 80 164 0.0 0.0 0.00 0.00 0.00 74 1015.0
20260510050349 80 139 2.0 3.0 0.00 0.00 0.00 74 1014.9
20260510045849 80 180 0.0 0.0 0.00 0.00 0.00 74 1015.1
20260510045352 80 170 2.0 3.0 0.00 0.00 0.00 73 1015.0
20260510044849 81 172 0.0 0.0 0.00 0.00 0.00 73 1015.0
20260510044352 81 161 0.0 0.0 0.00 0.00 0.00 73 1015.2
20260510043849 81 171 0.0 0.0 0.00 0.00 0.00 72 1015.2
20260510043349 81 153 2.0 2.0 0.00 0.00 0.00 72 1015.1
20260510042849 81 173 0.0 0.0 0.00 0.00 0.00 71 1015.1
20260510042352 81 152 2.0 3.0 0.00 0.00 0.00 71 1015.0
20260510041848 82 161 3.0 4.0 0.00 0.00 0.00 70 1015.1
20260510041352 82 159 0.0 0.0 0.00 0.00 0.00 69 1015.1
20260510040848 82 118 3.0 4.0 0.00 0.00 0.00 68 1014.9
20260510040349 82 125 3.0 4.0 0.00 0.00 0.00 67 1015.0
20260510035848 83 151 2.0 4.0 0.00 0.00 0.00 66 1015.0
20260510035352 83 175 1.0 2.0 0.00 0.00 0.00 65 1014.6
20260510034848 83 130 3.0 4.0 0.00 0.00 0.00 64 1014.9
20260510034352 83 147 2.0 3.0 0.00 0.00 0.00 64 1014.7
20260510033848 83 160 1.0 2.0 0.00 0.00 0.00 64 1014.8
20260510033349 83 152 0.0 0.0 0.00 0.00 0.00 64 1014.6
20260510032848 83 109 2.0 2.0 0.00 0.00 0.00 63 1014.7
20260510032352 84 171 0.0 0.0 0.00 0.00 0.00 63 1014.4
20260510031848 84 162 0.0 0.0 0.00 0.00 0.00 62 1014.2
20260510031352 84 166 1.0 2.0 0.00 0.00 0.00 62 1014.1
20260510030848 84 177 0.0 0.0 0.00 0.00 0.00 62 1014.0
20260510030349 84 168 0.0 0.0 0.00 0.00 0.00 62 1013.9
20260510025848 84 173 0.0 0.0 0.00 0.00 0.00 62 1013.7
20260510025352 84 168 0.0 0.0 0.00 0.00 0.00 62 1013.7
20260510024848 85 173 0.0 0.0 0.00 0.00 0.00 61 1013.5
20260510024352 85 158 0.0 0.0 0.00 0.00 0.00 60 1013.5
20260510023848 86 171 0.0 0.0 0.00 0.00 0.00 60 1013.5
20260510023349 86 168 1.0 2.0 0.00 0.00 0.00 59 1013.4
20260510022848 86 166 0.0 0.0 0.00 0.00 0.00 59 1013.5
20260510022352 86 164 1.0 2.0 0.00 0.00 0.00 59 1013.5
20260510021848 87 145 0.0 0.0 0.00 0.00 0.00 59 1013.3
20260510021353 87 169 0.0 0.0 0.00 0.00 0.00 58 1013.2
20260510020849 87 138 0.0 0.0 0.00 0.00 0.00 58 1013.2
20260510020349 87 153 1.0 2.0 0.00 0.00 0.00 58 1013.1
20260510015848 87 169 0.0 0.0 0.00 0.00 0.00 58 1012.8
20260510015353 88 164 0.0 0.0 0.00 0.00 0.00 57 1013.0
20260510014849 88 167 0.0 0.0 0.00 0.00 0.00 57 1012.8
20260510014353 88 125 0.0 0.0 0.00 0.00 0.00 57 1012.8
20260510013849 88 172 1.0 2.0 0.00 0.00 0.00 57 1012.7
20260510013349 89 162 0.0 0.0 0.00 0.00 0.00 56 1012.7
20260510012849 89 166 0.0 0.0 0.00 0.00 0.00 56 1012.4
20260510012353 89 112 0.0 0.0 0.00 0.00 0.00 56 1012.3
20260510011849 90 153 0.0 0.0 0.00 0.00 0.00 55 1012.3
20260510011353 90 115 1.0 3.0 0.00 0.00 0.00 55 1012.3
20260510010849 90 170 0.0 0.0 0.00 0.00 0.00 55 1012.2
20260510010349 90 162 0.0 0.0 0.00 0.00 0.00 55 1012.0
20260510005849 90 174 0.0 0.0 0.00 0.00 0.00 55 1012.2
20260510005353 91 174 0.0 0.0 0.00 0.00 0.00 54 1012.0
20260510004849 91 169 0.0 0.0 0.00 0.00 0.00 55 1012.1
20260510004352 91 108 1.0 2.0 0.00 0.00 0.00 54 1012.1
20260510003849 91 182 0.0 0.0 0.00 0.00 0.00 54 1012.0
20260510003348 92 189 0.0 0.0 0.00 0.00 0.00 54 1011.9
20260510002849 92 140 0.0 0.0 0.00 0.00 0.00 53 1012.0
20260510002352 92 161 0.0 0.0 0.00 0.00 0.00 53 1012.1
20260510001849 92 169 0.0 0.0 0.00 0.00 0.00 53 1011.8
20260510001353 92 96 2.0 3.0 0.00 0.00 0.00 52 1011.8
20260510000849 93 111 0.0 0.0 0.00 0.00 0.00 52 1011.9
20260510000349 93 200 1.0 2.0 0.00 0.00 0.00 52 1011.8
20260509235849 93 161 0.0 0.0 0.00 0.00 0.00 52 1012.1
20260509235352 94 118 1.0 2.0 0.00 0.00 0.00 52 1011.9
20260509234849 94 180 0.0 0.0 0.00 0.00 0.00 49 1011.8
20260509234352 94 208 0.0 0.0 0.00 0.00 0.00 51 1012.1
20260509233849 95 295 1.0 2.0 0.00 0.00 0.00 50 1011.8
20260509233348 96 186 0.0 0.0 0.00 0.00 0.00 48 1011.6
20260509232849 96 268 0.0 0.0 0.00 0.00 0.00 50 1011.9
20260509232352 97 214 0.0 0.0 0.00 0.00 0.00 49 1012.0
20260509231849 94 220 0.0 0.0 0.00 0.00 0.00 51 1011.8
20260509231352 94 332 0.0 0.0 0.00 0.00 0.00 51 1011.9
20260509230849 95 176 0.0 0.0 0.00 0.00 0.00 50 1012.1
20260509230348 94 71 1.0 2.0 0.00 0.00 0.00 51 1011.8
20260509225849 95 324 1.0 2.0 0.00 0.00 0.00 51 1011.8
20260509225352 94 109 0.0 0.0 0.00 0.00 0.00 52 1011.8
20260509224849 95 339 2.0 3.0 0.00 0.00 0.00 52 1011.8
20260509224352 95 3 3.0 4.0 0.00 0.00 0.00 51 1011.9
20260509223849 96 352 2.0 4.0 0.00 0.00 0.00 50 1012.0
20260509223349 97 317 3.0 3.0 0.00 0.00 0.00 50 1012.0
20260509222849 97 204 0.0 0.0 0.00 0.00 0.00 48 1012.0
20260509222352 95 285 0.0 0.0 0.00 0.00 0.00 50 1012.0
20260509221849 96 175 1.0 2.0 0.00 0.00 0.00 50 1011.9
20260509221352 97 179 0.0 0.0 0.00 0.00 0.00 48 1011.9
20260509220849 96 67 1.0 2.0 0.00 0.00 0.00 48 1012.2
20260509220349 96 204 0.0 0.0 0.00 0.00 0.00 49 1012.1
20260509215849 95 168 0.0 0.0 0.00 0.00 0.00 49 1012.4
20260509215352 95 68 3.0 4.0 0.00 0.00 0.00 50 1012.2
20260509214849 96 227 0.0 0.0 0.00 0.00 0.00 50 1012.3
20260509214352 94 333 1.0 2.0 0.00 0.00 0.00 53 1012.4
20260509213848 94 30 1.0 2.0 0.00 0.00 0.00 52 1012.3
20260509213349 95 11 0.0 0.0 0.00 0.00 0.00 52 1012.2
20260509212849 95 304 1.0 2.0 0.00 0.00 0.00 52 1012.3
20260509212352 95 174 0.0 0.0 0.00 0.00 0.00 50 1012.6
20260509211849 95 160 1.0 2.0 0.00 0.00 0.00 52 1012.6
20260509211352 95 117 3.0 4.0 0.00 0.00 0.00 53 1012.6
20260509210849 94 25 2.0 4.0 0.00 0.00 0.00 52 1012.7
20260509210349 94 191 0.0 0.0 0.00 0.00 0.00 54 1012.8
20260509205849 93 90 1.0 4.0 0.00 0.00 0.00 54 1012.8
20260509205352 94 76 3.0 4.0 0.00 0.00 0.00 53 1012.8
20260509204849 95 232 1.0 2.0 0.00 0.00 0.00 54 1013.0
20260509204352 95 186 1.0 4.0 0.00 0.00 0.00 55 1013.2
20260509203849 93 173 0.0 0.0 0.00 0.00 0.00 57 1013.2
20260509203348 93 359 0.0 0.0 0.00 0.00 0.00 57 1013.4
20260509202849 94 66 1.0 2.0 0.00 0.00 0.00 57 1013.5
20260509202352 93 169 0.0 0.0 0.00 0.00 0.00 56 1013.6
20260509201849 93 212 0.0 0.0 0.00 0.00 0.00 55 1013.5
20260509201352 93 9 0.0 0.0 0.00 0.00 0.00 57 1013.5
20260509200849 93 219 0.0 0.0 0.00 0.00 0.00 56 1013.8
20260509200348 93 212 1.0 2.0 0.00 0.00 0.00 57 1013.7
20260509195849 92 84 2.0 3.0 0.00 0.00 0.00 56 1014.0
20260509195352 92 254 1.0 2.0 0.00 0.00 0.00 62 1013.9
20260509194849 91 98 1.0 2.0 0.00 0.00 0.00 60 1014.0
20260509194352 92 195 0.0 0.0 0.00 0.00 0.00 60 1014.3
20260509193849 92 241 1.0 2.0 0.00 0.00 0.00 60 1014.2
20260509193349 92 244 0.0 0.0 0.00 0.00 0.00 60 1014.4
20260509192849 92 180 1.0 3.0 0.00 0.00 0.00 60 1014.5
20260509192352 91 235 0.0 0.0 0.00 0.00 0.00 61 1014.4
20260509191849 90 347 1.0 2.0 0.00 0.00 0.00 65 1014.5
20260509191352 89 3 3.0 6.0 0.00 0.00 0.00 65 1014.7
20260509190849 89 168 1.0 2.0 0.00 0.00 0.00 67 1014.8
20260509190349 89 339 4.0 5.0 0.00 0.00 0.00 68 1014.8
20260509185849 90 148 3.0 5.0 0.00 0.00 0.00 66 1015.0
20260509185352 90 230 2.0 3.0 0.00 0.00 0.00 67 1014.9
20260509184848 89 239 0.0 0.0 0.00 0.00 0.00 68 1015.0
20260509184352 90 166 0.0 0.0 0.00 0.00 0.00 67 1015.2
20260509183848 89 209 0.0 0.0 0.00 0.00 0.00 67 1015.4
20260509183349 90 58 1.0 2.0 0.00 0.00 0.00 67 1015.4
20260509182849 88 163 1.0 2.0 0.00 0.00 0.00 68 1015.6
20260509182352 89 55 1.0 3.0 0.00 0.00 0.00 70 1015.5
20260509181848 88 195 1.0 2.0 0.00 0.00 0.00 72 1015.7
20260509181353 88 127 1.0 2.0 0.00 0.00 0.00 71 1015.8
20260509180849 87 210 1.0 2.0 0.00 0.00 0.00 72 1015.9
20260509180349 86 241 0.0 0.0 0.00 0.00 0.00 74 1015.9
20260509175848 85 195 0.0 0.0 0.00 0.00 0.00 75 1016.1
20260509175353 85 210 0.0 0.0 0.00 0.00 0.00 76 1016.2
20260509174849 87 175 1.0 2.0 0.00 0.00 0.00 75 1016.2
20260509174353 86 213 1.0 2.0 0.00 0.00 0.00 75 1016.4
20260509173849 86 212 0.0 0.0 0.00 0.00 0.00 76 1016.4
20260509173349 86 152 0.0 0.0 0.00 0.00 0.00 75 1016.4
20260509172848 86 127 1.0 2.0 0.00 0.00 0.00 75 1016.3
20260509172353 85 241 1.0 2.0 0.00 0.00 0.00 77 1016.5
20260509171849 84 145 2.0 3.0 0.00 0.00 0.00 77 1016.5
20260509171353 84 264 1.0 2.0 0.00 0.00 0.00 78 1016.6
20260509170849 85 198 0.0 0.0 0.00 0.00 0.00 78 1016.8
20260509170349 84 157 0.0 0.0 0.00 0.00 0.00 79 1016.7
20260509165849 83 160 0.0 0.0 0.00 0.00 0.00 80 1016.7
20260509165353 81 185 0.0 0.0 0.00 0.00 0.00 82 1016.8
20260509164849 80 199 0.0 0.0 0.00 0.00 0.00 82 1016.9
20260509164353 79 155 0.0 0.0 0.00 0.00 0.00 83 1017.1
20260509163849 78 92 0.0 0.0 0.00 0.00 0.00 83 1016.9
20260509163349 80 3 1.0 3.0 0.00 0.00 0.00 83 1017.2
20260509162849 79 113 0.0 0.0 0.00 0.00 0.00 83 1017.0
20260509162353 80 132 0.0 0.0 0.00 0.00 0.00 83 1017.0
20260509161849 81 158 0.0 0.0 0.00 0.00 0.00 83 1017.2
20260509161353 79 175 0.0 0.0 0.00 0.00 0.00 83 1016.8
20260509160849 79 223 0.0 0.0 0.00 0.00 0.00 84 1017.1
20260509160349 80 117 0.0 0.0 0.00 0.00 0.00 83 1016.9
20260509155849 80 67 0.0 0.0 0.00 0.00 0.00 82 1017.1
20260509155352 81 194 0.0 0.0 0.00 0.00 0.00 83 1017.2
20260509154849 80 162 0.0 0.0 0.00 0.00 0.00 83 1017.0
20260509154352 79 108 0.0 0.0 0.00 0.00 0.00 84 1017.0
20260509153849 78 71 1.0 2.0 0.00 0.00 0.00 84 1017.3
20260509153348 78 167 0.0 0.0 0.00 0.00 0.00 85 1017.2
20260509152849 77 158 1.0 2.0 0.00 0.00 0.00 85 1017.1
20260509152352 78 202 0.0 0.0 0.00 0.00 0.00 85 1017.2
20260509151849 78 202 1.0 2.0 0.00 0.00 0.00 85 1016.9
20260509151352 77 181 0.0 0.0 0.00 0.00 0.00 86 1017.0
20260509150849 77 165 0.0 0.0 0.00 0.00 0.00 86 1017.1
20260509150349 77 196 0.0 0.0 0.00 0.00 0.00 86 1017.0
20260509145849 77 191 0.0 0.0 0.00 0.00 0.00 87 1016.9
20260509145353 76 161 0.0 0.0 0.00 0.00 0.00 87 1017.0
20260509144849 77 161 0.0 0.0 0.00 0.00 0.00 86 1016.8
20260509144352 77 153 0.0 0.0 0.00 0.00 0.00 86 1016.8
20260509143849 77 173 0.0 0.0 0.00 0.00 0.00 86 1016.8
20260509143349 76 151 0.0 0.0 0.00 0.00 0.00 88 1016.6
20260509142849 75 176 0.0 0.0 0.00 0.00 0.00 89 1016.7
20260509142353 75 143 2.0 3.0 0.00 0.00 0.00 89 1017.0
20260509141849 74 150 1.0 2.0 0.00 0.00 0.00 90 1016.9
20260509141352 74 96 0.0 0.0 0.00 0.00 0.00 91 1016.8
20260509140849 74 181 0.0 0.0 0.00 0.00 0.00 91 1016.8
20260509140349 74 194 0.0 0.0 0.00 0.00 0.00 91 1016.9
20260509135849 74 165 0.0 0.0 0.00 0.00 0.00 92 1016.8
20260509135352 73 134 0.0 0.0 0.00 0.00 0.00 92 1016.6
20260509134849 73 174 0.0 0.0 0.00 0.00 0.00 93 1016.6
20260509134352 73 156 0.0 0.0 0.00 0.00 0.00 93 1016.3
20260509133849 72 201 1.0 2.0 0.00 0.00 0.00 93 1016.1
20260509133349 72 179 0.0 0.0 0.00 0.00 0.00 93 1016.2
20260509132848 72 152 1.0 2.0 0.00 0.00 0.00 93 1016.1